Regional Weather Roundup
Issued by NWS

Home | Current Version | Previous Version | Text Only | Print | Product List | Glossary Off
Versions: 1 2 3 4 5 6 7 8 9 10 11 12 13 14 15 16 17 18 19 20 21 22 23 24 25 26 27 28 29 30 31 32 33 34 35 36 37 38 39 40 41 42 43 44 45 46 47 48 49 50

000
ASUS45 KBOU 010107
RWRCO

WEATHER ROUNDUP FOR COLORADO
NATIONAL WEATHER SERVICE DENVER/BOULDER CO
700 PM MDT THU JUL 31 2014

NOTE: "FAIR" INDICATES FEW OR NO CLOUDS BELOW 12000 FEET WITH NO
SIGNIFICANT WEATHER AND/OR OBSTRUCTIONS TO VISIBILITY.

COZ001>005-013-030-031-010200-
...NORTHWEST COLORADO...

CITY           SKY/WX    TMP DP  RH WIND       PRES   REMARKS
CRAIG          MOSUNNY   68  47  46 CALM      30.19F
HAYDEN         MOSUNNY   73  46  38 E12       30.22S
MEEKER         SUNNY     78  47  33 E3        30.20F
MOUNT WERNER   NOT AVBL
STEAMBOAT SPGS MOSUNNY   72  47  40 E9        30.25R
WALDEN         MOSUNNY   66  36  32 NE16      30.35S
$$

COZ006>008-011-010200-
...WEST CENTRAL VALLEYS...

CITY           SKY/WX    TMP DP  RH WIND       PRES   REMARKS
GRAND JUNCTION PTSUNNY   82  48  30 W7        30.06F
MONTROSE       PTSUNNY   81  51  35 CALM      30.16S
EAGLE          PTSUNNY   72  55  56 N7        30.26R
RIFLE          MOSUNNY   83  45  26 NW14      30.11S
DELTA          PTSUNNY   89  43  20 W16       30.07F
NUCLA          PTSUNNY   81  45  28 NW9       30.18S
$$

COZ017>023-064>068-010200-
...SOUTHWEST COLORADO...

CITY           SKY/WX    TMP DP  RH WIND       PRES   REMARKS
DURANGO        CLOUDY    77  48  35 SW3       30.22S
CORTEZ         PTSUNNY   81  47  30 W8        30.14F
PAGOSA SPRINGS CLOUDY    67  54  61 CALM      30.32S
TELLURIDE      PTSUNNY   68  45  42 W5        30.40R
WOLF CREEK PAS NOT AVBL
$$

COZ009-010-012-014-032>034-037-058>063-010200-
...CENTRAL COLORADO...

CITY           SKY/WX    TMP DP  RH WIND       PRES   REMARKS
ASPEN          PTSUNNY   64  50  60 SW7       30.32R
BUENA VISTA    CLOUDY    55  49  80 SE3       30.42R
COPPER MTN     PTSUNNY   54  41  62 W6        30.63S
BERTHOUD PASS  FOG       37  37 100 SE18G24   30.67S VSB<1/4
COTTONWOOD PAS CLOUDY    52  46  82 S5        30.52S
GUNNISON       PTSUNNY   73  43  33 S6        30.31R
KREMMLING      MOSUNNY   72  43  35 SE3       30.31S
LEADVILLE      PTSUNNY   51  47  86 CALM        N/A
MONARCH PASS   SNOW      43  43 100 NE21G28   30.73R VSB<1/4
SALIDA         CLOUDY    57  55  91 SE6       30.47R
SUNLIGHT       CLOUDY    54  50  87 NE5       30.55S
WILKERSON PASS FOG       45  43  93 E5        30.62S VSB<1/4
$$

COZ069>075-010200-
...SAN LUIS VALLEY/SANGRE DE CRISTO MOUNTAINS...

CITY           SKY/WX    TMP DP  RH WIND       PRES   REMARKS
ALAMOSA        CLOUDY    63  52  67 E7        30.33R
LA VETA PASS   FOG       48  46  93 E7        30.54R VSB<1/4
SAGUACHE       CLOUDY    63  52  67 SE8       30.38R
$$

COZ035-036-038>040-010200-
...NORTHERN COLORADO FRONT RANGE...

CITY           SKY/WX    TMP DP  RH WIND       PRES   REMARKS
DENVER INTL AP PTSUNNY   75  47  36 E5        30.24F
DMNS CITY PARK   N/A     72  52  50 CALM      30.24S
AURORA         PTSUNNY   72  49  44 SE6       30.27F
FRONT RANGE AP PTSUNNY   75  45  33 E3        30.25F
ERIE MUNI ARPT MOSUNNY   75  43  31 CALM      30.23S
BOULDER MUN AP MOSUNNY   75  45  33 CALM      30.22S
CENTENNIAL     MOSUNNY   71  49  45 NE6       30.27F
BROOMFIELD     PTSUNNY   73  45  35 VRB3      30.26F
FORT COLLINS   SUNNY     79  46  31 CALM      30.20S
LONGMONT       SUNNY     80  46  30 E3        30.24R
$$

COZ041-046-047-076>085-087-088-010200-
...PIKES PEAK/PALMER DIVIDE AND SOUTHERN FOOTHILLS...

CITY           SKY/WX    TMP DP  RH WIND       PRES   REMARKS
COLO. SPRINGS  PTSUNNY   65  54  67 S3        30.32S
A. F. ACADEMY  PTSUNNY   61  59  92 SE3       30.33R
ELLICOTT       PTSUNNY   65  52  62 SW6       30.30S
FALCON         CLOUDY    62  54  76 SW6       30.36R
FORT CARSON    PTSUNNY   65  56  73 S6        30.30R
LIMON          CLOUDY    72  47  40 SW7       30.24F
MONUMENT HILL  PTSUNNY   63  46  55 SE3       30.35R
TRINIDAD       CLOUDY    68  51  54 N3        30.29S
$$

COZ042>045-048>051-090-091-010200-
...NORTHEAST COLORADO...

CITY           SKY/WX    TMP DP  RH WIND       PRES   REMARKS
GREELEY ARPT   NOT AVBL
AKRON          SUNNY     79  44  28 VRB3      30.19S
BURLINGTON     SUNNY     78  49  35 S3        30.17F
WRAY             N/A     84  47  27 CALM      30.13S
STERLING       SUNNY     81  57  44 S6        30.14S
HOLYOKE        SUNNY     79  52  38 W5        30.12S
FORT MORGAN    SUNNY     78  46  32 S3        30.19S
$$

COZ086-089-092>099-010200-
...SOUTHEAST COLORADO...

CITY           SKY/WX    TMP DP  RH WIND       PRES   REMARKS
PUEBLO         PTSUNNY   72  52  49 S7        30.23S
LA JUNTA       CLOUDY    74  54  49 E6        30.20F
LAMAR          PTSUNNY   77  52  41 CALM      30.16S
SPRINGFIELD      N/A     72  54  53 NE9       30.21R
$$



USA.gov is the U.S. government's official web portal to all federal, state and local government web resources and services.